Location: Squirrel Cove
(50.1074°N, 124.9139°W)
Time: 10:16:41
(UTC-08:00)

Tiangong - Visible Passes

Search period start: 07 December 2021 00:00
Search period end: 17 December 2021 00:00
Orbit: 379 x 385 km, 41.5° (Epoch: 07 December)

Date Brightness Start Highest point End Pass type
(mag) Time Alt. Az. Time Alt. Az. Time Alt. Az.
10 Dec 3.6 18:18:37 10° S 18:19:57 12° SSE 18:20:04 12° SSE visible
11 Dec 3.8 18:53:32 10° SW 18:54:33 14° SSW 18:54:33 14° SSW visible
12 Dec 3.5 17:53:26 10° SSW 17:55:18 15° SSE 17:56:51 11° SE visible
13 Dec 3.3 18:28:49 10° SW 18:31:01 17° S 18:31:18 17° S visible
14 Dec 3.5 17:28:30 10° SW 17:30:37 17° S 17:32:44 10° SE visible
14 Dec 4.0 19:04:48 10° SW 19:05:45 13° SSW 19:05:45 13° SSW visible
15 Dec 3.5 18:04:09 10° SW 18:06:18 17° S 18:08:06 11° SSE visible
16 Dec 3.6 17:03:39 10° SW 17:05:51 17° S 17:08:03 10° SE visible
16 Dec 3.9 18:40:30 10° SW 18:41:54 12° SSW 18:42:40 12° S visible
